time_stamp(utc),avg(mph),gust(mph),direction(deg),12m_air_temp(f),sonic_u(cm/s),sonic_v(cm/s),sonic_w(cm/s),pressure,2m_air_temp(f),pyranometer(W/m^2)
"2020-10-16 00:02:39+00",14.6,23.6,,67.1,-62,-629,-4,1014.91,66.6,0
"2020-10-16 00:07:39+00",17.6,24.6,,67.2,-89,-722,-30,1014.95,66.6,0
"2020-10-16 00:12:39+00",15.4,20.4,,67.2,-113,-651,-13,1014.91,66.7,0
"2020-10-16 00:17:39+00",17.5,24.5,,67.2,-112,-765,4,1014.8,66.7,0
"2020-10-16 00:22:39+00",18.1,23.1,,67.2,-131,-773,-27,1014.84,66.7,0
"2020-10-16 00:27:39+00",15.7,20.7,,67.1,-109,-666,-11,1014.82,66.6,0
"2020-10-16 00:32:39+00",16.8,21.8,,67.2,-76,-730,-15,1014.77,66.7,0
"2020-10-16 00:37:39+00",17.0,21.0,,67.2,-99,-744,-8,1014.83,66.7,0
"2020-10-16 00:42:39+00",18.2,23.2,,67.2,-104,-799,-18,1014.9,66.8,0
"2020-10-16 00:47:39+00",15.5,18.5,,67.3,-82,-672,-18,1014.91,66.8,0
"2020-10-16 00:52:39+00",15.4,19.4,,67.2,-90,-660,-13,1015.02,66.7,0
"2020-10-16 00:57:39+00",18.9,23.9,,67.2,-115,-791,-37,1014.96,66.7,0
"2020-10-16 01:02:39+00",16.8,21.8,,67.1,-126,-740,-16,1015.07,66.6,0
"2020-10-16 01:07:39+00",13.8,21.8,,67.2,-92,-568,24,1015.27,66.6,0
"2020-10-16 01:12:39+00",16.8,21.8,,67.2,-142,-735,-17,1015.23,66.7,0
"2020-10-16 01:17:39+00",13.7,17.7,,67.2,-126,-566,8,1015.22,66.6,0
"2020-10-16 01:22:39+00",17.2,24.2,,67.4,-133,-718,13,1015.09,66.7,0
"2020-10-16 01:27:39+00",15.4,20.4,,67.4,-166,-684,-1,1015.24,66.8,0
"2020-10-16 01:32:39+00",15.6,21.6,,67.4,-100,-634,11,1015.15,66.8,0
"2020-10-16 01:37:39+00",14.6,19.6,,67.5,-124,-634,23,1015.13,66.9,0
"2020-10-16 01:42:39+00",17.1,21.1,,67.6,-139,-739,-1,1015.19,67,0
"2020-10-16 01:47:39+00",13.7,16.7,,67.4,-134,-606,-5,1015.35,66.8,0
"2020-10-16 01:52:39+00",17.3,22.3,,67.4,-177,-753,-2,1015.28,66.8,0
"2020-10-16 01:57:39+00",14.9,19.9,,67.4,-185,-622,1,1015.4,66.8,0
"2020-10-16 02:02:39+00",16.2,21.2,,67.2,-210,-684,-10,1015.41,66.7,0
"2020-10-16 02:07:39+00",15.5,19.5,,67.2,-160,-649,12,1015.48,66.6,0
"2020-10-16 02:12:39+00",17.0,24.0,,67.2,-185,-707,1,1015.38,66.6,0
"2020-10-16 02:17:39+00",15.9,19.9,,67.2,-148,-682,-7,1015.44,66.6,0
"2020-10-16 02:22:39+00",14.6,18.6,,67.2,-159,-623,2,1015.46,66.6,0
"2020-10-16 02:27:39+00",17.1,21.1,,67.2,-203,-727,-27,1015.43,66.6,0
"2020-10-16 02:32:39+00",14.6,19.6,,67.2,-174,-599,4,1015.43,66.6,0
"2020-10-16 02:37:39+00",15.6,18.6,,67.1,-155,-666,-11,1015.48,66.5,0
"2020-10-16 02:42:39+00",15.2,18.2,,67.2,-225,-638,-12,1015.51,66.6,0
"2020-10-16 02:47:39+00",15.3,21.3,,67.1,-217,-650,-15,1015.45,66.5,0
"2020-10-16 02:52:39+00",13.6,17.6,,67.2,-222,-549,11,1015.47,66.5,0
"2020-10-16 02:57:39+00",14.4,16.4,,67.2,-289,-585,10,1015.48,66.4,0
"2020-10-16 03:02:39+00",14.2,17.2,,67.2,-270,-582,3,1015.49,66.4,0
"2020-10-16 03:07:39+00",12.8,15.8,,67.1,-254,-514,15,1015.51,66.4,0
"2020-10-16 03:12:39+00",14.5,19.5,,67.2,-305,-595,3,1015.54,66.4,0
"2020-10-16 03:17:39+00",14.2,17.2,,67.2,-295,-571,-3,1015.59,66.4,0
"2020-10-16 03:22:39+00",14.4,16.4,,67.2,-303,-587,6,1015.56,66.4,0
"2020-10-16 03:27:39+00",14.4,17.4,,67.2,-277,-600,9,1015.52,66.4,0
"2020-10-16 03:32:39+00",13.9,16.9,,67.2,-269,-559,11,1015.55,66.3,0
"2020-10-16 03:37:39+00",13.3,16.3,,67.1,-244,-535,1,1015.54,66.3,0
"2020-10-16 03:42:39+00",14.2,18.2,,67.1,-251,-555,-2,1015.51,66.3,0
"2020-10-16 03:47:39+00",13.8,15.8,,67,-277,-563,-6,1015.5,66.2,0
"2020-10-16 03:52:39+00",14.2,17.2,,67.1,-231,-580,-2,1015.47,66.3,0
"2020-10-16 03:57:39+00",14.5,16.5,,67.1,-271,-582,3,1015.5,66.3,0
"2020-10-16 04:02:39+00",12.9,15.9,,67.1,-236,-529,-6,1015.44,66.3,0
"2020-10-16 04:07:39+00",12.7,16.7,,67.1,-255,-509,2,1015.44,66.3,0
"2020-10-16 04:12:39+00",14.6,17.6,,67.1,-250,-609,-4,1015.39,66.3,0
"2020-10-16 04:17:39+00",12.7,14.7,,67.1,-252,-512,7,1015.42,66.2,0
"2020-10-16 04:22:39+00",13.3,15.3,,67.1,-276,-533,1,1015.34,66.3,0
"2020-10-16 04:27:39+00",12.7,14.7,,67.2,-273,-510,15,1015.31,66.4,0
"2020-10-16 04:32:39+00",14.8,17.8,,67.3,-341,-577,-3,1015.35,66.4,0
"2020-10-16 04:37:39+00",13.6,16.6,,67.3,-322,-528,0,1015.23,66.4,0
"2020-10-16 04:42:39+00",14.3,17.3,,67.3,-357,-569,-4,1015.23,66.4,0
"2020-10-16 04:47:39+00",15.1,18.1,,67.6,-381,-575,-8,1015.2,66.6,0
"2020-10-16 04:52:39+00",13.4,16.4,,67.5,-358,-496,5,1015.27,66.6,0
"2020-10-16 04:57:39+00",12.2,14.2,,67.4,-338,-468,8,1015.24,66.6,0
"2020-10-16 05:02:39+00",14.2,17.2,,67.5,-395,-515,9,1015.25,66.5,0
"2020-10-16 05:07:39+00",13.8,15.8,,67.5,-376,-512,8,1015.26,66.6,0
"2020-10-16 05:12:39+00",14.0,17.0,,67.5,-386,-503,13,1015.23,66.6,0
"2020-10-16 05:17:39+00",15.9,18.9,,67.7,-451,-611,10,1015.29,66.7,0
"2020-10-16 05:22:39+00",16.3,19.3,,67.8,-445,-577,-6,1015.34,66.8,0
"2020-10-16 05:27:39+00",16.3,19.3,,67.7,-443,-597,-14,1015.29,66.8,0
"2020-10-16 05:32:39+00",16.0,19.0,,67.8,-437,-596,-4,1015.27,66.9,0
"2020-10-16 05:37:39+00",14.8,19.8,,67.9,-388,-562,17,1015.26,66.9,0
"2020-10-16 05:42:39+00",15.9,17.9,,67.9,-441,-594,-2,1015.25,67,0
"2020-10-16 05:47:39+00",16.0,18.0,,67.9,-428,-607,-3,1015.19,67,0
"2020-10-16 05:52:39+00",15.1,17.1,,67.9,-380,-596,10,1015.19,67.1,0
"2020-10-16 05:57:39+00",14.0,16.0,,67.9,-366,-538,10,1015.25,67.1,0
"2020-10-16 06:02:39+00",14.6,17.6,,67.9,-373,-578,7,1015.24,67.1,0
"2020-10-16 06:07:39+00",14.6,17.6,,67.9,-361,-561,0,1015.26,67,0
"2020-10-16 06:12:39+00",13.9,17.9,,67.8,-322,-547,26,1015.27,67,0
"2020-10-16 06:17:39+00",13.8,15.8,,67.8,-347,-539,6,1015.27,67,0
"2020-10-16 06:22:39+00",15.1,18.1,,67.8,-402,-566,17,1015.3,67,0
"2020-10-16 06:27:39+00",14.9,16.9,,67.9,-371,-573,-1,1015.28,67,0
"2020-10-16 06:32:39+00",15.1,18.1,,67.9,-374,-590,-2,1015.21,67,0
"2020-10-16 06:37:39+00",13.9,15.9,,67.8,-311,-543,4,1015.15,67,0
"2020-10-16 06:42:39+00",12.4,15.4,,67.7,-277,-485,-7,1015.13,67,0
"2020-10-16 06:47:39+00",13.1,15.1,,67.6,-321,-516,2,1015.12,66.8,0
"2020-10-16 06:52:39+00",13.4,15.4,,67.7,-313,-534,-1,1015.14,66.9,0
"2020-10-16 06:57:39+00",13.3,15.3,,67.7,-316,-529,9,1015.11,66.8,0
"2020-10-16 07:02:39+00",14.3,16.3,,67.7,-327,-579,0,1015.11,66.8,0
"2020-10-16 07:07:39+00",13.9,15.9,,67.6,-314,-535,10,1015.06,66.8,0
"2020-10-16 07:12:39+00",14.6,16.6,,67.5,-347,-569,4,1015.03,66.8,0
"2020-10-16 07:17:39+00",14.2,16.2,,67.6,-337,-551,-3,1015.03,66.8,0
"2020-10-16 07:22:39+00",13.9,15.9,,67.5,-309,-546,2,1014.92,66.7,0
"2020-10-16 07:27:39+00",13.0,15.0,,67.4,-319,-521,11,1014.94,66.7,0
"2020-10-16 07:32:39+00",14.2,17.2,,67.3,-300,-563,-13,1014.92,66.6,0
"2020-10-16 07:37:39+00",12.8,14.8,,67.3,-285,-517,1,1014.83,66.6,0
"2020-10-16 07:42:39+00",14.1,17.1,,67.2,-322,-577,-12,1014.92,66.5,0
"2020-10-16 07:47:39+00",12.6,14.6,,67.2,-289,-511,0,1014.95,66.5,0
"2020-10-16 07:52:39+00",13.7,16.7,,67.2,-288,-541,7,1014.98,66.5,0
"2020-10-16 07:57:39+00",14.8,16.8,,67.3,-319,-588,-10,1014.97,66.5,0
"2020-10-16 08:02:39+00",13.8,15.8,,67.3,-270,-561,-12,1014.88,66.5,0
"2020-10-16 08:07:39+00",12.8,13.8,,67.3,-237,-517,13,1014.84,66.5,0
"2020-10-16 08:12:39+00",13.2,15.2,,67.3,-255,-531,4,1014.89,66.5,0
"2020-10-16 08:17:39+00",13.1,15.1,,67.3,-260,-525,-3,1014.88,66.5,0
"2020-10-16 08:22:39+00",12.3,14.3,,67.2,-249,-499,12,1014.89,66.5,0
"2020-10-16 08:27:39+00",10.8,12.8,,67.2,-152,-456,5,1014.99,66.6,0
"2020-10-16 08:32:39+00",12.3,15.3,,67.2,-176,-514,-5,1015.04,66.6,0
"2020-10-16 08:37:39+00",12.6,14.6,,67.3,-202,-514,1,1015.06,66.7,0
"2020-10-16 08:42:39+00",14.3,17.3,,67.3,-208,-597,4,1015.14,66.7,0
"2020-10-16 08:47:39+00",14.2,17.2,,67.3,-204,-587,-1,1015.22,66.7,0
"2020-10-16 08:52:39+00",13.5,16.5,,67.2,-185,-548,6,1015.23,66.7,0
"2020-10-16 08:57:39+00",13.3,16.3,,67.1,-198,-555,-12,1015.18,66.7,0
"2020-10-16 09:02:39+00",12.4,14.4,,67.1,-176,-517,-4,1015.23,66.6,0
"2020-10-16 09:07:39+00",11.6,14.6,,67,-133,-486,2,1015.2,66.6,0
"2020-10-16 09:12:39+00",11.4,12.4,,66.9,-120,-481,-12,1015.24,66.5,0
"2020-10-16 09:17:39+00",10.7,14.7,,66.8,-92,-450,7,1015.27,66.4,0
"2020-10-16 09:22:39+00",12.5,17.5,,66.8,-147,-535,-10,1015.27,66.3,0
"2020-10-16 09:27:39+00",11.3,14.3,,66.7,-123,-480,-2,1015.25,66.3,0
"2020-10-16 09:32:39+00",11.0,14.0,,66.7,-117,-458,5,1015.26,66.2,0
"2020-10-16 09:37:39+00",10.6,14.6,,66.6,-97,-453,12,1015.22,66.2,0
"2020-10-16 09:42:39+00",10.5,14.5,,66.6,-83,-435,15,1015.22,66.1,0
"2020-10-16 09:47:39+00",12.6,17.6,,66.6,-89,-523,2,1015.22,66.1,0
"2020-10-16 09:52:39+00",11.8,15.8,,66.5,-80,-499,-5,1015.31,66.1,0
"2020-10-16 09:57:39+00",13.0,16.0,,66.5,-79,-542,-16,1015.31,66.1,0
"2020-10-16 10:02:39+00",12.5,15.5,,66.5,-98,-531,-15,1015.31,66.1,0
"2020-10-16 10:07:39+00",9.1,14.1,,66.4,-59,-363,12,1015.3,66,0
"2020-10-16 10:12:39+00",8.7,10.7,,66.4,-93,-367,-16,1015.51,65.9,0
"2020-10-16 10:17:39+00",11.6,13.6,,66.4,-155,-475,-23,1015.53,66,0
"2020-10-16 10:22:39+00",11.6,13.6,,66.6,-171,-477,-8,1015.58,66.2,0
"2020-10-16 10:27:39+00",11.3,13.3,,66.8,-186,-473,3,1015.71,66.3,0
"2020-10-16 10:32:39+00",9.9,12.9,,66.8,-161,-394,16,1015.78,66.3,0
"2020-10-16 10:37:39+00",11.4,14.4,,66.8,-189,-468,-6,1015.71,66.3,0
"2020-10-16 10:42:39+00",9.9,11.9,,66.8,-164,-393,-4,1015.58,66.4,0
"2020-10-16 10:47:39+00",10.6,12.6,,66.9,-169,-438,-8,1015.63,66.4,0
"2020-10-16 10:52:39+00",8.8,10.8,,66.9,-135,-361,-6,1015.65,66.4,0
"2020-10-16 10:57:39+00",8.4,9.4,,66.9,-133,-342,2,1015.6,66.4,0
"2020-10-16 11:02:39+00",7.7,9.7,,66.9,-164,-306,-3,1015.57,66.4,0
"2020-10-16 11:07:39+00",6.8,7.8,,66.8,-149,-268,-5,1015.44,66.4,0
"2020-10-16 11:12:39+00",6.2,8.2,,66.8,-142,-235,-2,1015.54,66.4,0
"2020-10-16 11:17:39+00",7.5,7.5,,66.8,-154,-295,1,1015.55,66.4,0
"2020-10-16 11:22:39+00",6.6,7.6,,66.8,-146,-255,4,1015.58,66.4,0
"2020-10-16 11:27:39+00",6.5,7.5,,66.8,-133,-256,3,1015.52,66.4,0
"2020-10-16 11:32:39+00",6.2,7.2,,66.7,-125,-241,-5,1015.5,66.4,0
"2020-10-16 11:37:39+00",6.1,7.1,,66.7,-167,-220,5,1015.57,66.4,0
"2020-10-16 11:42:39+00",5.0,6.0,,66.6,-201,-71,-1,1015.64,66.3,0
"2020-10-16 11:47:39+00",5.5,5.5,,66.5,-240,29,6,1015.64,66.2,0
"2020-10-16 11:52:39+00",4.2,5.2,,66.5,-155,-57,2,1015.59,66.2,0
"2020-10-16 11:57:39+00",4.4,5.4,,66.5,-182,-36,-3,1015.65,66.2,0
"2020-10-16 12:02:39+00",4.2,5.2,,66.3,-166,-78,-2,1015.78,66.2,0
"2020-10-16 12:07:39+00",4.4,5.4,,66.3,-178,-93,-3,1015.77,66.2,0
"2020-10-16 12:12:39+00",3.5,3.5,,66.4,-124,-90,-3,1015.76,66.1,0
"2020-10-16 12:17:39+00",4.3,4.3,,66.4,2,-175,-4,1015.79,66.2,0
"2020-10-16 12:22:39+00",4.1,5.1,,66.2,-7,-164,-6,1015.75,66,0
"2020-10-16 12:27:39+00",3.7,4.7,,66.2,-141,-89,4,1015.84,66.1,0
"2020-10-16 12:32:39+00",2.8,3.8,,66.2,-59,-110,-3,1015.86,66.1,0
"2020-10-16 12:37:39+00",1.3,2.3,,66.2,-39,-33,8,1015.77,66.1,0
"2020-10-16 12:42:39+00",4.9,5.9,,66.1,-139,-172,6,1016.05,66.1,0
"2020-10-16 12:47:39+00",5.8,6.8,,66.1,-255,-16,-4,1015.97,66,0
"2020-10-16 12:52:39+00",8.6,10.6,,66.3,-382,27,15,1015.95,66,0
"2020-10-16 12:57:39+00",6.6,6.6,,66.4,-275,100,7,1016.07,65.9,0
"2020-10-16 13:02:39+00",20.5,23.5,,63.4,-299,873,26,1016.28,63.7,0
"2020-10-16 13:07:39+00",17.7,20.7,,62,-371,665,32,1016.41,62.3,0
"2020-10-16 13:12:39+00",13.4,15.4,,61.6,-253,528,38,1016.65,61.7,0
"2020-10-16 13:17:39+00",15.9,17.9,,61.3,-338,597,25,1016.91,61.2,0
"2020-10-16 13:22:39+00",15.8,17.8,,61,-327,612,28,1016.87,60.9,0
"2020-10-16 13:27:39+00",18.3,22.3,,60.9,-572,596,59,1016.94,60.8,0
"2020-10-16 13:32:39+00",19.3,22.3,,60.3,-508,648,67,1016.97,60,0
"2020-10-16 13:37:39+00",19.6,21.6,,59.9,-469,728,63,1016.94,59.4,0
"2020-10-16 13:42:39+00",20.2,22.2,,59.6,-622,639,45,1017.06,59.4,0
"2020-10-16 13:47:39+00",19.7,21.7,,59.4,-482,712,43,1017.04,59.1,0
"2020-10-16 13:52:39+00",17.8,20.8,,59.1,-482,587,57,1017.2,58.8,0
"2020-10-16 13:57:39+00",16.0,19.0,,58.8,-370,579,47,1017.35,58.6,0
"2020-10-16 14:02:39+00",18.1,22.1,,58.6,-477,649,55,1017.32,58.4,0
"2020-10-16 14:07:39+00",17.7,20.7,,58.5,-463,618,49,1017.37,58.1,0
"2020-10-16 14:12:39+00",19.2,23.2,,58.2,-505,653,30,1017.42,57.9,0
"2020-10-16 14:17:39+00",19.3,22.3,,58,-520,669,50,1017.35,57.7,0
"2020-10-16 14:22:39+00",20.2,23.2,,57.6,-483,753,35,1017.18,57.5,0
"2020-10-16 14:27:39+00",18.6,22.6,,57.5,-431,703,54,1017.26,57.4,0
"2020-10-16 14:32:39+00",16.8,19.8,,57.3,-325,647,35,1017.27,57.2,0
"2020-10-16 14:37:39+00",16.7,20.7,,57.2,-283,632,36,1017.37,56.9,0
"2020-10-16 14:42:39+00",16.5,19.5,,57.2,-356,635,41,1017.37,56.9,0
"2020-10-16 14:47:39+00",16.7,19.7,,57.2,-488,548,31,1017.68,56.9,0
"2020-10-16 14:52:39+00",17.1,19.1,,57.1,-482,564,45,1017.76,56.9,0
"2020-10-16 14:57:39+00",14.4,18.4,,56.8,-343,513,26,1017.74,56.9,0
"2020-10-16 15:02:39+00",16.7,19.7,,56.8,-592,480,69,1018.06,56.9,0
"2020-10-16 15:07:39+00",18.7,19.7,,56.6,-373,720,23,1017.88,56.8,0
"2020-10-16 15:12:39+00",18.5,22.5,,56.6,-397,692,39,1017.92,56.6,0
"2020-10-16 15:17:39+00",16.4,19.4,,56.7,-588,413,31,1018.54,56.6,0
"2020-10-16 15:22:39+00",18.9,21.9,,56.4,-415,707,19,1018.17,56.4,0
"2020-10-16 15:27:39+00",16.7,20.7,,56.3,-287,671,39,1018.04,56.4,0
"2020-10-16 15:32:39+00",16.3,19.3,,56.3,-329,644,33,1018.19,56.4,0
"2020-10-16 15:37:39+00",12.2,14.2,,56.4,-257,495,39,1018.25,56.3,0
"2020-10-16 15:42:39+00",15.3,18.3,,56.4,-265,640,23,1018.32,56.3,0
"2020-10-16 15:47:39+00",18.3,22.3,,56.3,-404,687,33,1018.61,56,0
"2020-10-16 15:52:39+00",20.1,23.1,,56.2,-433,729,57,1018.8,55.8,0
"2020-10-16 15:57:39+00",20.4,24.4,,56,-400,815,27,1018.76,55.8,0
"2020-10-16 16:02:39+00",20.0,22.0,,55.8,-420,762,34,1018.96,55.4,0
"2020-10-16 16:07:39+00",19.9,20.9,,55.7,-388,778,19,1018.98,55.2,0
"2020-10-16 16:12:39+00",17.9,20.9,,55.6,-267,754,34,1018.9,55.3,0
"2020-10-16 16:17:39+00",18.3,22.3,,55.5,-403,675,39,1018.98,55.3,0
"2020-10-16 16:22:39+00",18.1,21.1,,55.4,-174,764,7,1018.77,55.3,0
"2020-10-16 16:27:39+00",16.5,19.5,,55.3,-173,717,44,1018.83,55.2,0
"2020-10-16 16:32:39+00",16.5,17.5,,55.2,-48,724,11,1018.98,55.3,0
"2020-10-16 16:37:39+00",17.8,20.8,,55.2,-120,790,37,1018.98,55,0
"2020-10-16 16:42:39+00",17.7,19.7,,55.1,-8,776,8,1018.94,54.7,0
"2020-10-16 16:47:39+00",20.1,24.1,,54.5,147,868,-5,1018.89,54.4,0
"2020-10-16 16:52:39+00",20.8,24.8,,53.9,34,893,22,1018.89,53.8,0
"2020-10-16 16:57:39+00",21.6,24.6,,53.7,-18,949,-14,1019.26,53.5,0
"2020-10-16 17:02:39+00",21.6,25.6,,53.6,-87,953,33,1018.91,53.5,0
"2020-10-16 17:07:39+00",17.4,21.4,,53.6,-121,743,26,1019.18,53.2,0
"2020-10-16 17:12:39+00",18.9,22.9,,53.4,-43,840,16,1019.21,53.1,0
"2020-10-16 17:17:39+00",18.9,21.9,,53.2,34,840,-9,1018.99,53.1,0
"2020-10-16 17:22:39+00",15.8,18.8,,53.1,-52,684,5,1019.16,53.1,0
"2020-10-16 17:27:39+00",19.2,22.2,,53.1,-161,844,7,1019.14,53,0
"2020-10-16 17:32:39+00",16.3,20.3,,53.2,-111,724,12,1019.22,53,0
"2020-10-16 17:37:39+00",17.7,20.7,,53.2,-260,717,8,1019.31,52.9,0
"2020-10-16 17:42:39+00",16.7,20.7,,53.1,-221,691,18,1019.49,52.8,0
"2020-10-16 17:47:39+00",16.2,19.2,,52.9,-143,697,30,1019.39,52.8,0
"2020-10-16 17:52:39+00",16.8,18.8,,52.8,-78,755,20,1019.42,52.6,0
"2020-10-16 17:57:39+00",15.4,20.4,,52.8,-20,686,36,1019.22,52.6,0
"2020-10-16 18:02:39+00",14.0,16.0,,52.5,-88,610,31,1019.25,52.3,0
"2020-10-16 18:07:39+00",22.0,26.0,,52.3,-55,1006,-22,1019,52,0
"2020-10-16 18:12:39+00",18.6,20.6,,52.2,-131,808,18,1019.21,51.9,0
"2020-10-16 18:17:39+00",19.3,23.3,,52.2,-92,836,27,1019.13,51.7,0
"2020-10-16 18:22:39+00",15.3,19.3,,52.2,-59,662,23,1019.2,51.8,0
"2020-10-16 18:27:39+00",15.3,16.3,,52.2,14,674,19,1019.09,51.8,0
"2020-10-16 18:32:39+00",13.2,16.2,,52.3,-11,572,48,1019,51.9,0
"2020-10-16 18:37:39+00",17.7,21.7,,52.3,-61,786,27,1019.02,52,0
"2020-10-16 18:42:39+00",14.2,17.2,,52.4,-48,640,15,1019.01,52.1,0
"2020-10-16 18:47:39+00",17.3,20.3,,52.3,-108,756,20,1018.99,52.1,0
"2020-10-16 18:52:39+00",16.4,17.4,,52.3,-31,709,12,1019.05,52,0
"2020-10-16 18:57:39+00",11.6,16.6,,52.4,-164,481,28,1019.27,52.1,0
"2020-10-16 19:02:39+00",16.1,18.1,,52.3,-129,718,14,1019.23,52,0
"2020-10-16 19:07:39+00",19.7,22.7,,52.2,-146,860,8,1019.17,51.8,0
"2020-10-16 19:12:39+00",17.7,21.7,,52,-48,769,10,1019,51.7,0
"2020-10-16 19:17:39+00",18.8,21.8,,51.7,-123,858,-6,1019.16,51.6,0
"2020-10-16 19:22:39+00",17.0,19.0,,51.5,2,761,18,1019.51,51.4,0
"2020-10-16 19:27:39+00",14.0,16.0,,51.6,-13,610,30,1019.64,51.3,0
"2020-10-16 19:32:39+00",14.6,17.6,,51.5,91,629,16,1019.39,51.3,0
"2020-10-16 19:37:39+00",13.3,16.3,,51.5,39,576,6,1019.38,51.2,0
"2020-10-16 19:42:39+00",14.6,17.6,,51.4,-5,642,29,1019.36,51,0
"2020-10-16 19:47:39+00",14.5,18.5,,51.5,16,629,11,1019.28,51.1,0
"2020-10-16 19:52:39+00",15.1,18.1,,51.7,19,661,18,1019.31,51.2,0
"2020-10-16 19:57:39+00",17.6,19.6,,51.7,25,778,-6,1019.46,51.2,0
"2020-10-16 20:02:39+00",15.2,17.2,,51.6,-87,658,13,1019.49,51.1,0
"2020-10-16 20:07:39+00",13.6,15.6,,51.5,-137,596,18,1019.5,51.1,0
"2020-10-16 20:12:39+00",14.0,17.0,,51.4,-158,582,13,1019.74,51.1,0
"2020-10-16 20:17:39+00",12.3,14.3,,51.4,-195,510,3,1019.8,51,0
"2020-10-16 20:22:39+00",13.5,16.5,,51.2,-65,592,19,1019.53,51,0
"2020-10-16 20:27:39+00",14.3,15.3,,51.3,-170,612,2,1019.62,50.9,0
"2020-10-16 20:32:39+00",17.6,18.6,,51.3,-219,749,4,1019.6,50.8,0
"2020-10-16 20:37:39+00",13.8,14.8,,51.3,-133,593,14,1019.52,50.8,0
"2020-10-16 20:42:39+00",14.4,17.4,,51.3,-76,641,10,1019.61,50.8,0
"2020-10-16 20:47:39+00",12.7,15.7,,51.3,-7,545,35,1019.48,50.7,0
"2020-10-16 20:52:39+00",14.5,20.5,,51.3,-17,657,25,1019.37,50.6,0
"2020-10-16 20:57:39+00",18.2,20.2,,51.2,70,787,-5,1019.12,50.4,0
"2020-10-16 21:02:39+00",14.7,18.7,,51.1,28,630,12,1018.9,50.4,0
"2020-10-16 21:07:39+00",18.2,22.2,,51.1,85,786,8,1018.82,50.2,0
"2020-10-16 21:12:39+00",16.7,20.7,,51.2,67,725,5,1018.87,50.3,0
"2020-10-16 21:17:39+00",14.6,16.6,,51.2,53,645,14,1018.79,50.5,0
"2020-10-16 21:22:39+00",15.5,16.5,,51.2,126,631,-9,1018.77,50.5,0
"2020-10-16 21:27:39+00",12.4,16.4,,51.3,79,509,4,1018.74,50.5,0
"2020-10-16 21:32:39+00",14.2,16.2,,51.3,41,617,3,1018.78,50.7,0
"2020-10-16 21:37:39+00",14.0,17.0,,51.4,-15,625,6,1018.88,50.8,0
"2020-10-16 21:42:39+00",10.5,14.5,,51.4,14,465,32,1018.63,50.9,0
"2020-10-16 21:47:39+00",13.2,15.2,,51.4,123,544,-7,1018.4,50.9,0
"2020-10-16 21:52:39+00",11.7,14.7,,51.4,164,455,7,1018.57,51,0
"2020-10-16 21:57:39+00",10.6,12.6,,51.5,-28,463,6,1018.62,51.1,0
"2020-10-16 22:02:39+00",12.3,14.3,,51.3,-61,540,14,1018.54,51.1,0
"2020-10-16 22:07:39+00",11.8,14.8,,51.3,-125,503,2,1018.64,51.1,0
"2020-10-16 22:12:39+00",9.4,11.4,,51.3,-88,408,11,1018.54,51,0
"2020-10-16 22:17:39+00",9.7,10.7,,51.2,-1,416,9,1018.34,51.1,0
"2020-10-16 22:22:39+00",11.3,13.3,,51.1,49,480,4,1018.09,51.1,0
"2020-10-16 22:27:39+00",10.7,12.7,,51.4,57,457,3,1018.28,51,0
"2020-10-16 22:32:39+00",10.2,12.2,,51.5,88,413,2,1018.41,51.1,0
"2020-10-16 22:37:39+00",11.3,15.3,,51.5,58,498,-2,1018.63,51.2,0
"2020-10-16 22:42:39+00",13.6,17.6,,51.6,72,599,-23,1019.16,50.8,0
"2020-10-16 22:47:39+00",13.2,16.2,,51.6,58,572,11,1018.98,50.7,0
"2020-10-16 22:52:39+00",13.8,15.8,,51.5,-2,603,9,1019.14,50.6,0
"2020-10-16 22:57:39+00",11.7,15.7,,51.3,123,483,-6,1018.94,50.6,0
"2020-10-16 23:02:39+00",11.5,13.5,,51.3,227,435,17,1018.68,50.8,0
"2020-10-16 23:07:39+00",14.8,17.8,,51.3,193,598,4,1018.95,50.7,0
"2020-10-16 23:12:39+00",13.7,16.7,,51.5,28,586,4,1019.01,50.6,0
"2020-10-16 23:17:39+00",10.2,12.2,,51.4,-193,408,41,1019.15,50.8,0
"2020-10-16 23:22:39+00",10.7,12.7,,51.2,-279,374,6,1019.33,50.9,0
"2020-10-16 23:27:39+00",12.7,14.7,,51.2,-342,439,34,1019.62,51.1,0
"2020-10-16 23:32:39+00",13.2,15.2,,51.2,-337,476,32,1019.53,51.1,0
"2020-10-16 23:37:39+00",8.9,10.9,,51.2,-137,350,24,1019.23,50.9,0
"2020-10-16 23:42:39+00",10.1,12.1,,51,-303,323,14,1019.65,50.9,0
"2020-10-16 23:47:39+00",13.9,14.9,,51.1,-426,438,34,1019.94,50.9,0
"2020-10-16 23:52:39+00",7.3,9.3,,51.2,-186,260,13,1019.71,51,0
"2020-10-16 23:57:39+00",10.0,11.0,,51.2,-385,238,28,1020.35,51,0
